Albany, GA

10:05 PM EDT on October 18, 2019 (GMT -0400)
Southwest Georgia Regional

Weather History for KABY - September, 2019

Change the Weather History Date:

Saturday, September 21, 2019

  Actual Average Record
Temperature  
Mean Temperature 80 °F 76 °F  
Max Temperature 91 °F 87 °F 98 °F (1954)
Min Temperature 68 °F 66 °F 44 °F (1981)
Degree Days  
Heating Degree Days 0    
Month to date heating degree days 0  
Since 1 July heating degree days 0  
Cooling Degree Days 15    
Month to date cooling degree days 382  
Year to date cooling degree days 2742  
Growing Degree Days 30 (Base 50)    
Moisture  
Dew Point 61 °F    
Average Humidity 58    
Maximum Humidity 84    
Minimum Humidity 30    
Precipitation  
Precipitation 0.00 in 0.09 in 1.45 in (2007)
Month to date precipitation 1.26 2.63  
Year to date precipitation 33.97 38.23  
Sea Level Pressure  
Sea Level Pressure 30.23 in    
Wind  
Wind Speed 5 mph ()    
Max Wind Speed 17 mph    
Max Gust Speed 22 mph    
Visibility 10.0 miles    
Events      
T = Trace of Precipitation, MM = Missing Value Source: Averaged Metar Reports

Daily Weather History Graph

Daily Weather History Graph

Search for Another Location

Airport or City:

Astronomy

Sep. 21, 2019 Rise Set
Actual Time 7:24 AM EDT 7:34 PM EDT
Civil Twilight 6:59 AM EDT 7:59 PM EDT
Nautical Twilight 6:31 AM EDT 8:27 PM EDT
Astronomical Twilight 6:02 AM EDT 8:56 PM EDT
Moon No Moon Rise 2:06 PM EDT (9/21)
Length of Visible Light 12h 59m
Length of Day
12h 10m
Waning Gibbous, 55% of the Moon is Illuminated
Sep 21
Waning Gibbous
Sep 21
Last Quarter
Sep 28
New
Oct 5
First Quarter
Oct 13
Full

Hourly Weather History & Observations

Time (EDT) Temp. Heat Index Dew Point Humidity Pressure Visibility Wind Dir Wind Speed Gust Speed Precip Events Conditions
12:53 AM 73.0 °F - 64.0 °F 73% 30.23 in 10.0 mi East 5.8 mph - N/A   Clear
1:53 AM 72.0 °F - 64.9 °F 78% 30.24 in 10.0 mi Calm Calm - N/A   Mostly Cloudy
2:53 AM 71.1 °F - 64.9 °F 81% 30.22 in 10.0 mi East 5.8 mph - N/A   Partly Cloudy
3:53 AM 71.1 °F - 64.9 °F 81% 30.22 in 10.0 mi ENE 4.6 mph - N/A   Clear
4:53 AM 71.1 °F - 64.9 °F 81% 30.22 in 10.0 mi East 4.6 mph - N/A   Mostly Cloudy
5:53 AM 70.0 °F - 64.9 °F 84% 30.24 in 10.0 mi NE 4.6 mph - N/A   Mostly Cloudy
6:53 AM 70.0 °F - 64.9 °F 84% 30.25 in 10.0 mi ENE 4.6 mph - N/A   Scattered Clouds
7:53 AM 70.0 °F - 64.9 °F 84% 30.27 in 10.0 mi NE 3.5 mph - N/A   Clear
8:53 AM 73.9 °F - 64.9 °F 73% 30.29 in 10.0 mi NE 6.9 mph - N/A   Clear
9:53 AM 77.0 °F - 64.9 °F 66% 30.30 in 10.0 mi ENE 8.1 mph - N/A   Clear
10:53 AM 82.0 °F 83.8 °F 64.9 °F 56% 30.30 in 10.0 mi East 9.2 mph - N/A   Clear
11:53 AM 86.0 °F 86.1 °F 61.0 °F 43% 30.29 in 10.0 mi East 10.4 mph - N/A   Partly Cloudy
12:53 PM 87.1 °F 87.0 °F 61.0 °F 41% 30.26 in 10.0 mi East 10.4 mph 18.4 mph N/A   Partly Cloudy
1:53 PM 88.0 °F 86.9 °F 57.9 °F 36% 30.23 in 10.0 mi East 8.1 mph - N/A   Mostly Cloudy
2:53 PM 89.1 °F 87.7 °F 57.0 °F 34% 30.21 in 10.0 mi East 12.7 mph 21.9 mph N/A   Partly Cloudy
3:53 PM 90.0 °F 88.1 °F 55.9 °F 31% 30.18 in 10.0 mi East 11.5 mph - N/A   Partly Cloudy
4:53 PM 90.0 °F 87.9 °F 55.0 °F 30% 30.17 in 10.0 mi East 11.5 mph - N/A   Clear
5:53 PM 90.0 °F 87.9 °F 55.0 °F 30% 30.15 in 10.0 mi ESE 8.1 mph - N/A   Clear
6:53 PM 87.1 °F 85.7 °F 55.9 °F 35% 30.16 in 10.0 mi East 5.8 mph - N/A   Clear
7:53 PM 81.0 °F 80.8 °F 55.9 °F 42% 30.16 in 10.0 mi East 3.5 mph - N/A   Clear
8:53 PM 75.9 °F - 57.9 °F 54% 30.17 in 10.0 mi Calm Calm - N/A   Clear
9:53 PM 73.0 °F - 59.0 °F 61% 30.20 in 10.0 mi Calm Calm - N/A   Clear
10:53 PM 75.0 °F - 57.9 °F 55% 30.22 in 10.0 mi SE 8.1 mph - N/A   Clear
11:53 PM 73.0 °F - 60.1 °F 64% 30.22 in 10.0 mi East 6.9 mph - N/A   Clear